Location: Newark
(37.9800°N, 91.3000°W)
Time: 20:07:59
(UTC+00:00)

NOAA 19 - Pass Details

Date: 13 December 2019
Orbit: 840 x 862 km, 99.2° (Epoch: 28 January)

Event Time Altitude Azimuth Distance (km) Brightness Sun altitude
Rises 12:34:47 0° 4° (N) 3,439 8.2 -7.5°
Reaches altitude 10° 12:37:19 10° 357° (N) 2,496 7.4 -7.0°
Maximum altitude 12:42:20 37° 292° (WNW) 1,308 5.7 -6.1°
Drops below altitude 10° 12:47:19 10° 227° (SW) 2,469 7.4 -5.2°
Sets 12:49:49 0° 219° (SW) 3,397 8.2 -4.8°
